Location: Asheville, NC
(35.6000°N, 82.5500°W)
Time: 01:55:15
(UTC-04:00)

XW-2C - Pass Details

Date: 05 January 2018
Orbit: 511 x 529 km, 97.5° (Epoch: 20 July)

Event Time Altitude Azimuth Distance (km) Brightness Sun altitude
Rises 18:38:01 0° 197° (SSW) 2,648 ? -13.3°
Reaches altitude 10° 18:40:29 10° 214° (SW) 1,766 ? -13.8°
Maximum altitude 18:43:26 21° 265° (W) 1,217 ? -14.4°
Drops below altitude 10° 18:46:24 10° 315° (NW) 1,780 ? -14.9°
Sets 18:48:55 0° 332° (NNW) 2,674 ? -15.4°
